| time (UTC) | temp F | wind direction | speed MPH | gust MPH | rain 1hr in | rain 24hr in | rain mn in | humidity % | barometer mb |
| 20260831123704 | 58 | 15 | 1.0 | 3.0 | 0.00 | 0.00 | 0.00 | 86 | 1013.8 |
| 20260831123204 | 58 | 338 | 2.0 | 9.0 | 0.00 | 0.00 | 0.00 | 86 | 1013.8 |
| 20260831120704 | 58 | 353 | 2.0 | 5.0 | 0.00 | 0.00 | 0.00 | 85 | 1014.0 |
| 20260831120204 | 58 | 347 | 2.0 | 7.0 | 0.00 | 0.00 | 0.00 | 85 | 1014.0 |
| 20260831113703 | 58 | 0 | 1.0 | 3.0 | 0.00 | 0.00 | 0.00 | 85 | 1014.3 |
| 20260831113203 | 58 | 0 | 2.0 | 3.0 | 0.00 | 0.00 | 0.00 | 84 | 1014.3 |
| 20260831110704 | 58 | 355 | 1.0 | 3.0 | 0.00 | 0.00 | 0.00 | 83 | 1014.4 |
| 20260831110203 | 58 | 355 | 1.0 | 5.0 | 0.00 | 0.00 | 0.00 | 83 | 1014.5 |
| 20260831103704 | 59 | 12 | 2.0 | 3.0 | 0.00 | 0.00 | 0.00 | 82 | 1014.6 |
| 20260831103204 | 59 | 18 | 3.0 | 6.0 | 0.00 | 0.00 | 0.00 | 82 | 1014.7 |
| 20260831100704 | 59 | 25 | 3.0 | 6.0 | 0.00 | 0.00 | 0.00 | 81 | 1014.8 |
| 20260831093704 | 60 | 22 | 3.0 | 7.0 | 0.00 | 0.00 | 0.00 | 80 | 1015.1 |
| 20260831093204 | 60 | 5 | 2.0 | 5.0 | 0.00 | 0.00 | 0.00 | 80 | 1015.2 |
| 20260831090704 | 60 | 24 | 3.0 | 5.0 | 0.00 | 0.00 | 0.00 | 80 | 1015.5 |
| 20260831083703 | 61 | 30 | 2.0 | 5.0 | 0.00 | 0.00 | 0.00 | 80 | 1015.5 |
| 20260831083204 | 61 | 31 | 2.0 | 8.0 | 0.00 | 0.00 | 0.00 | 80 | 1015.5 |
| 20260831080704 | 61 | 30 | 2.0 | 3.0 | 0.00 | 0.00 | 0.00 | 79 | 1015.7 |
| 20260831073703 | 61 | 32 | 1.0 | 3.0 | 0.00 | 0.00 | 0.00 | 76 | 1015.9 |
| 20260831073204 | 61 | 32 | 1.0 | 3.0 | 0.00 | 0.00 | 0.00 | 76 | 1015.9 |
| 20260831070704 | 62 | 32 | 1.0 | 2.0 | 0.00 | 0.00 | 0.00 | 74 | 1016.2 |
| 20260831070203 | 62 | 32 | 1.0 | 3.0 | 0.00 | 0.00 | 0.00 | 74 | 1016.2 |
| 20260831063704 | 62 | 32 | 0.0 | 1.0 | 0.00 | 0.00 | 0.00 | 72 | 1016.4 |
| 20260831060703 | 63 | 32 | 1.0 | 2.0 | 0.00 | 0.00 | 0.00 | 71 | 1016.7 |
| 20260831060203 | 63 | 32 | 1.0 | 5.0 | 0.00 | 0.00 | 0.00 | 70 | 1016.7 |
| 20260831053703 | 63 | 28 | 1.0 | 3.0 | 0.00 | 0.00 | 0.00 | 71 | 1017.0 |
| 20260831053204 | 64 | 24 | 1.0 | 3.0 | 0.00 | 0.00 | 0.00 | 71 | 1017.1 |
| 20260831050703 | 64 | 14 | 1.0 | 3.0 | 0.00 | 0.00 | 0.00 | 71 | 1017.2 |
| 20260831043703 | 65 | 17 | 1.0 | 2.0 | 0.00 | 0.00 | 0.00 | 69 | 1017.3 |
| 20260831043203 | 65 | 39 | 1.0 | 5.0 | 0.00 | 0.00 | 0.00 | 68 | 1017.4 |
| 20260831040704 | 66 | 356 | 1.0 | 3.0 | 0.00 | 0.00 | 0.00 | 66 | 1017.4 |
| 20260831040204 | 66 | 355 | 2.0 | 5.0 | 0.00 | 0.00 | 0.00 | 66 | 1017.3 |
| 20260831033704 | 67 | 326 | 2.0 | 7.0 | 0.00 | 0.00 | 0.00 | 62 | 1017.3 |
| 20260831030203 | 68 | 343 | 1.0 | 3.0 | 0.00 | 0.00 | 0.00 | 59 | 1017.1 |
| 20260831023704 | 69 | 299 | 2.0 | 3.0 | 0.00 | 0.00 | 0.00 | 56 | 1017.2 |
| 20260831020704 | 70 | 331 | 2.0 | 7.0 | 0.00 | 0.00 | 0.00 | 55 | 1017.4 |
| 20260831020204 | 71 | 279 | 2.0 | 10.0 | 0.00 | 0.00 | 0.00 | 55 | 1017.4 |
| 20260831013703 | 72 | 19 | 1.0 | 3.0 | 0.00 | 0.00 | 0.00 | 52 | 1017.5 |
| 20260831013204 | 73 | 306 | 2.0 | 9.0 | 0.00 | 0.00 | 0.00 | 50 | 1017.5 |
| 20260831010704 | 74 | 284 | 2.0 | 3.0 | 0.00 | 0.00 | 0.00 | 49 | 1017.7 |
| 20260831010204 | 74 | 287 | 2.0 | 8.0 | 0.00 | 0.00 | 0.00 | 49 | 1017.7 |
| 20260831003704 | 74 | 227 | 1.0 | 6.0 | 0.00 | 0.00 | 0.00 | 48 | 1017.9 |
| 20260831003204 | 75 | 316 | 2.0 | 8.0 | 0.00 | 0.00 | 0.00 | 48 | 1017.9 |
| 20260831000704 | 73 | 352 | 2.0 | 6.0 | 0.00 | 0.00 | 0.00 | 50 | 1018.1 |
| 20260831000204 | 73 | 277 | 3.0 | 8.0 | 0.00 | 0.00 | 0.00 | 50 | 1018.2 |
| 20260830233704 | 74 | 26 | 2.0 | 5.0 | 0.00 | 0.00 | 0.00 | 52 | 1018.4 |
| 20260830233204 | 73 | 291 | 2.0 | 8.0 | 0.00 | 0.00 | 0.00 | 52 | 1018.3 |
| 20260830230704 | 74 | 22 | 3.0 | 9.0 | 0.00 | 0.00 | 0.00 | 51 | 1018.4 |
| 20260830230204 | 74 | 246 | 4.0 | 10.0 | 0.00 | 0.00 | 0.00 | 51 | 1018.4 |
| 20260830223704 | 73 | 287 | 5.0 | 10.0 | 0.00 | 0.00 | 0.00 | 53 | 1018.8 |
| 20260830223204 | 73 | 268 | 4.0 | 10.0 | 0.00 | 0.00 | 0.00 | 52 | 1018.8 |
| 20260830220704 | 74 | 167 | 3.0 | 6.0 | 0.00 | 0.00 | 0.00 | 52 | 1018.8 |
| 20260830220204 | 74 | 219 | 3.0 | 10.0 | 0.00 | 0.00 | 0.00 | 52 | 1018.9 |
| 20260830213203 | 72 | 264 | 3.0 | 7.0 | 0.00 | 0.00 | 0.00 | 56 | 1019.3 |
| 20260830210204 | 72 | 277 | 3.0 | 12.0 | 0.00 | 0.00 | 0.00 | 55 | 1019.5 |
| 20260830203704 | 70 | 75 | 2.0 | 5.0 | 0.00 | 0.00 | 0.00 | 58 | 1019.7 |
| 20260830203203 | 70 | 55 | 1.0 | 8.0 | 0.00 | 0.00 | 0.00 | 59 | 1019.7 |
| 20260830200703 | 68 | 97 | 3.0 | 6.0 | 0.00 | 0.00 | 0.00 | 62 | 1020.0 |
| 20260830200204 | 67 | 160 | 5.0 | 8.0 | 0.00 | 0.00 | 0.00 | 63 | 1020.0 |
| 20260830193704 | 66 | 171 | 2.0 | 3.0 | 0.00 | 0.00 | 0.00 | 65 | 1020.2 |
| 20260830193204 | 67 | 259 | 1.0 | 9.0 | 0.00 | 0.00 | 0.00 | 64 | 1020.1 |
| 20260830190704 | 67 | 236 | 4.0 | 9.0 | 0.00 | 0.00 | 0.00 | 64 | 1020.2 |
| 20260830183204 | 65 | 206 | 3.0 | 9.0 | 0.00 | 0.00 | 0.00 | 67 | 1020.2 |
| 20260830180703 | 63 | 166 | 3.0 | 6.0 | 0.00 | 0.00 | 0.00 | 70 | 1020.4 |
| 20260830173204 | 63 | 290 | 1.0 | 7.0 | 0.00 | 0.00 | 0.00 | 70 | 1020.4 |
| 20260830170704 | 62 | 169 | 1.0 | 3.0 | 0.00 | 0.00 | 0.00 | 71 | 1020.4 |
| 20260830163704 | 61 | 293 | 2.0 | 3.0 | 0.00 | 0.00 | 0.00 | 73 | 1020.4 |
| 20260830163204 | 61 | 158 | 4.0 | 7.0 | 0.00 | 0.00 | 0.00 | 72 | 1020.4 |
| 20260830160703 | 60 | 215 | 1.0 | 3.0 | 0.00 | 0.00 | 0.00 | 75 | 1020.5 |
| 20260830153704 | 60 | 198 | 2.0 | 6.0 | 0.00 | 0.02 | 0.00 | 76 | 1020.4 |
| 20260830153204 | 60 | 241 | 1.0 | 5.0 | 0.00 | 0.02 | 0.00 | 76 | 1020.4 |
| 20260830150204 | 59 | 123 | 1.0 | 3.0 | 0.00 | 0.03 | 0.00 | 78 | 1020.4 |
| 20260830143704 | 58 | 107 | 1.0 | 2.0 | 0.00 | 0.09 | 0.00 | 80 | 1020.4 |
| 20260830143205 | 58 | 107 | 0.0 | 2.0 | 0.00 | 0.10 | 0.00 | 81 | 1020.3 |
| 20260830140704 | 57 | 107 | 0.0 | 3.0 | 0.00 | 0.30 | 0.00 | 82 | 1020.0 |
| 20260830140204 | 57 | 107 | 0.0 | 3.0 | 0.00 | 0.31 | 0.00 | 82 | 1019.9 |
| 20260830133704 | 57 | 111 | 1.0 | 3.0 | 0.00 | 0.36 | 0.00 | 83 | 1019.9 |
| 20260830133204 | 57 | 111 | 1.0 | 2.0 | 0.00 | 0.36 | 0.00 | 83 | 1019.9 |
| 20260830130704 | 57 | 99 | 1.0 | 3.0 | 0.00 | 0.36 | 0.00 | 83 | 1019.9 |
| 20260830130203 | 57 | 99 | 1.0 | 3.0 | 0.00 | 0.36 | 0.00 | 83 | 1019.8 |